Home > Weather > Kashan > Past weeks

Flag for Iran Weather for the Past 2 Weeks in Kashan, Iran

Now
59 °F

Clear.


Feels Like: 59 °F
Forecast: 59 / 93 °F
Wind: No wind

Location: Kashan Airport

Current Time: May 3, 2016 at 8:46:19 AM

Latest Report: May 3, 2016 at 6:30 AM


Visibility: 10 mi

Pressure: 30.04 "Hg (26.87 "Hg at 939m altitude)

Humidity: 55%

Dew Point: 43 °F

Location of KashanLocation

Historic Weather in Kashan — Graph

°F

Kashan Temperature Yesterday

Maximum temperature yesterday: 88 °F (at 2:30 PM)
Minimum temperature yesterday: 66 °F (at 6:30 AM)
Average temperature yesterday: 78 °F

High & Low Weather Summary for the Past Weeks

 TemperatureHumidityPressure
High95 °F (Apr 27, 3:30 PM)67% (Apr 20, 6:30 AM)30.27 "Hg (Apr 20, 6:30 AM)
Low50 °F (Apr 20, 6:30 AM)9% (Apr 27, 3:30 PM)29.83 "Hg (May 1, 5:30 AM)
Average74 °F30%30.02 "Hg
* Reported Apr 18 6:30 AM — May 3 6:30 AM, Kashan, Weather by CustomWeather, © 2016

Note: Actual official high and low records may vary slightly from our data, if they occured in-between our weather recording intervals... More about our weather records

Advertising

Kashan Weather History for the Previous 24 Hours

Scroll right to see more
 ConditionsComfort  
Time TempWeatherWind HumidityBarometerVisibility
6:30 AM
Tue, May 3
59 °FClear.No wind55%30.04 "Hg10 mi
5:30 AM63 °FClear.No wind49%30.01 "Hg10 mi
3:30 AM64 °FClear.No wind46%30.04 "Hg10 mi
2:30 AM66 °FClear.No wind46%30.01 "Hg10 mi
12:30 AM70 °FClear.No wind40%30.01 "Hg10 mi
11:30 PM
Mon, May 2
73 °FClear.No wind33%30.01 "Hg10 mi
9:30 PM75 °FPassing clouds.No wind34%29.98 "HgN/A
8:30 PM77 °FScattered clouds.7 mph32%29.98 "HgN/A
6:30 PM82 °FScattered clouds.18 mph23%29.92 "HgN/A
5:30 PM84 °FBroken clouds.22 mph22%29.89 "HgN/A
3:30 PM86 °FBroken clouds.9 mph22%29.92 "HgN/A
2:30 PM88 °FBroken clouds.No wind21%29.92 "HgN/A
12:30 PM86 °FScattered clouds.5 mph24%30.01 "HgN/A
11:30 AM82 °FSunny.5 mph26%30.01 "Hg10 mi
9:30 AM77 °FSunny.5 mph32%30.01 "Hg10 mi
8:30 AM75 °FSunny.5 mph34%30.01 "Hg10 mi
Weather by CustomWeather, © 2016

See weather overviewHow to use our weather pages